Temp
-21 -21 -21 -21 -21 -21 -21 -20 -20 -20 -19 -19 -19 -19 -19 -19 -19 -19 -19 -18 -18 -17 -17 -17 -16 -16 -16 -16 -15 -15 -15 -15 -14 -14 -14 -14 -14 -13 -13 -13 -13 -13 -12 -12
-22 -22 -22 -22 -22 -22 -22 -21 -21 -20 -20 -20 -20 -20 -20 -19 -19 -19 -19 -19 -18 -18 -17 -17 -16 -16 -16 -16 -16 -16 -15 -15 -15 -14 -14 -14 -14 -14 -14 -13 -13 -13 -13 -13
-23 -22 -23 -23 -23 -22 -22 -22 -22 -21 -21 -20 -20 -20 -20 -19 -19 -19 -19 -19 -19 -18 -18 -17 -17 -16 -16 -16 -16 -16 -16 -16 -15 -15 -15 -14 -14 -14 -14 -14 -14 -13 -13 -13
-23 -24 -23 -23 -23 -23 -23 -22 -22 -22 -21 -21 -21 -21 -20 -20 -20 -19 -19 -19 -19 -19 -18 -18 -17 -17 -17 -17 -16 -16 -16 -16 -16 -15 -15 -15 -15 -15 -14 -14 -14 -14 -14 -14
-24 -24 -24 -24 -24 -24 -23 -23 -23 -23 -22 -22 -21 -21 -21 -20 -20 -20 -19 -19 -19 -19 -19 -18 -18 -18 -18 -17 -17 -17 -16 -16 -15 -15 -15 -15 -15 -15 -15 -15 -15 -15 -14 -14
-24 -24 -24 -24 -24 -24 -24 -24 -23 -23 -23 -22 -22 -22 -21 -20 -20 -20 -20 -19 -19 -19 -19 -19 -19 -19 -18 -18 -18 -17 -17 -17 -16 -16 -16 -15 -15 -15 -15 -15 -15 -15 -15 -15
-24 -25 -25 -25 -24 -24 -24 -24 -24 -24 -23 -23 -23 -23 -22 -21 -21 -21 -20 -20 -20 -19 -19 -19 -19 -19 -19 -19 -19 -18 -18 -18 -18 -17 -17 -16 -16 -16 -16 -15 -15 -15 -15 -15
-25 -25 -25 -25 -25 -25 -25 -25 -25 -24 -24 -24 -23 -23 -22 -22 -22 -21 -21 -21 -20 -20 -20 -20 -19 -19 -19 -19 -19 -19 -19 -19 -18 -18 -17 -17 -17 -17 -16 -16 -16 -16 -15 -15
-25 -25 -24 -24 -24 -24 -24 -25 -25 -25 -25 -25 -24 -23 -23 -23 -22 -22 -22 -21 -21 -21 -20 -20 -20 -20 -20 -20 -19 -19 -19 -19 -19 -18 -18 -18 -18 -17 -17 -17 -16 -16 -16 -16
-25 -25 -24 -24 -24 -24 -24 -24 -25 -25 -25 -25 -25 -24 -23 -23 -23 -23 -23 -22 -22 -21 -21 -21 -21 -21 -21 -21 -20 -20 -19 -19 -19 -19 -18 -18 -18 -18 -18 -18 -18 -17 -17 -16
-25 -25 -24 -24 -24 -24 -24 -24 -24 -25 -25 -26 -26 -24 -24 -24 -23 -23 -23 -23 -23 -22 -22 -22 -22 -21 -21 -21 -21 -20 -20 -20 -19 -19 -19 -19 -19 -18 -18 -18 -18 -18 -18 -17
-25 -25 -25 -24 -24 -24 -24 -24 -24 -25 -25 -25 -26 -25 -25 -25 -25 -24 -24 -24 -24 -24 -23 -22 -22 -22 -22 -21 -21 -21 -21 -20 -20 -20 -20 -19 -19 -19 -19 -19 -18 -18 -18 -18
-25 -25 -25 -25 -25 -24 -24 -24 -24 -24 -25 -25 -26 -24 -25 -26 -26 -26 -26 -25 -25 -25 -24 -24 -23 -23 -22 -22 -22 -22 -22 -22 -21 -21 -21 -20 -20 -20 -20 -19 -19 -19 -19 -18
-26 -26 -26 -26 -25 -25 -25 -25 -25 -25 -25 -25 -25 -25 -26 -27 -27 -27 -28 -29 -28 -27 -26 -25 -25 -25 -24 -24 -23 -23 -22 -22 -22 -21 -21 -21 -21 -21 -21 -21 -20 -20 -20 -20
-27 -27 -27 -27 -27 -26 -26 -26 -26 -26 -26 -26 -27 -27 -27 -28 -28 -29 -30 -30 -29 -29 -28 -27 -27 -26 -25 -25 -24 -24 -24 -23 -23 -23 -22 -21 -21 -21 -21 -21 -21 -21 -20 -20
-28 -28 -28 -27 -27 -27 -27 -27 -27 -27 -27 -28 -28 -28 -29 -30 -30 -31 -31 -31 -30 -29 -29 -29 -28 -28 -27 -26 -25 -25 -25 -24 -24 -24 -23 -23 -22 -22 -21 -21 -21 -21 -21 -21
-29 -29 -29 -28 -28 -28 -28 -28 -28 -28 -28 -29 -29 -29 -30 -30 -31 -32 -32 -32 -32 -31 -30 -30 -29 -29 -29 -28 -27 -26 -26 -25 -25 -25 -24 -24 -23 -23 -22 -22 -22 -21 -21 -21
-29 -29 -29 -29 -29 -29 -29 -29 -29 -29 -29 -30 -30 -30 -30 -30 -31 -31 -31 -32 -32 -32 -31 -31 -30 -30 -29 -29 -28 -28 -27 -26 -26 -25 -25 -25 -24 -24 -23 -23 -23 -22 -22 -22
-30 -30 -30 -30 -30 -30 -30 -30 -30 -30 -30 -30 -30 -30 -31 -31 -31 -32 -31 -32 -32 -32 -32 -31 -31 -30 -30 -29 -29 -28 -28 -28 -27 -27 -26 -26 -25 -25 -24 -24 -24 -23 -23 -22
-31 -31 -31 -31 -31 -31 -31 -31 -31 -31 -31 -31 -31 -31 -31 -31 -31 -31 -32 -32 -32 -32 -32 -32 -31 -31 -31 -30 -30 -29 -28 -28 -28 -28 -27 -27 -26 -26 -26 -25 -25 -24 -24 -23
-31 -31 -31 -32 -32 -31 -31 -31 -31 -31 -31 -31 -31 -31 -31 -31 -31 -31 -32 -32 -32 -32 -32 -32 -32 -32 -31 -31 -31 -30 -30 -29 -29 -29 -28 -27 -27 -27 -27 -26 -26 -25 -24 -24
-31 -31 -32 -32 -32 -32 -32 -32 -32 -32 -32 -31 -31 -31 -31 -32 -31 -31 -32 -32 -32 -32 -32 -32 -32 -32 -32 -32 -32 -31 -31 -30 -30 -30 -29 -29 -28 -28 -27 -27 -27 -26 -26 -25
-31 -31 -32 -32 -32 -32 -32 -32 -32 -32 -32 -32 -32 -32 -32 -32 -32 -32 -32 -32 -32 -32 -32 -32 -32 -32 -32 -32 -32 -32 -32 -31 -31 -30 -30 -29 -29 -29 -28 -28 -28 -27 -27 -26
-32 -32 -32 -33 -33 -33 -32 -32 -32 -32 -32 -32 -32 -32 -32 -33 -33 -33 -33 -33 -33 -33 -32 -32 -32 -32 -32 -32 -32 -33 -33 -33 -33 -32 -31 -30 -30 -30 -29 -29 -29 -28 -27 -27
-33 -33 -33 -33 -33 -33 -33 -33 -32 -32 -32 -32 -32 -32 -33 -33 -33 -34 -34 -33 -33 -33 -33 -33 -33 -33 -33 -32 -32 -33 -33 -33 -33 -33 -33 -33 -32 -31 -30 -29 -29 -29 -28 -28
-33 -33 -33 -33 -34 -33 -33 -33 -33 -33 -33 -33 -33 -33 -33 -33 -34 -34 -34 -34 -34 -34 -34 -33 -33 -33 -33 -33 -33 -32 -33 -33 -33 -33 -33 -33 -33 -33 -33 -31 -30 -30 -29 -29
Height
5564 5566 5567 5569 5571 5573 5574 5577 5579 5579 5585 5586 5590 5595 5595 5598 5602 5605 5608 5614 5619 5625 5630 5639 5648 5655 5662 5668 5674 5679 5685 5691 5697 5702 5707 5712 5718 5723 5728 5733 5737 5742 5747 5751
5556 5555 5559 5560 5562 5564 5565 5567 5570 5569 5575 5576 5580 5585 5583 5588 5594 5594 5599 5602 5607 5614 5621 5628 5635 5643 5650 5657 5663 5668 5674 5680 5686 5691 5696 5702 5707 5712 5717 5723 5728 5733 5737 5741
5547 5549 5550 5551 5553 5555 5556 5558 5560 5562 5566 5566 5570 5574 5572 5579 5582 5586 5589 5592 5597 5603 5610 5616 5624 5630 5636 5644 5650 5656 5663 5669 5675 5680 5685 5691 5697 5702 5707 5713 5718 5722 5727 5732
5539 5540 5542 5543 5545 5546 5547 5550 5550 5552 5555 5557 5561 5563 5563 5569 5571 5576 5580 5583 5587 5592 5598 5604 5613 5617 5624 5628 5636 5644 5651 5657 5663 5668 5674 5680 5686 5691 5696 5702 5707 5712 5717 5722
5531 5532 5533 5534 5536 5537 5538 5540 5541 5543 5544 5546 5551 5553 5551 5558 5562 5566 5570 5575 5578 5581 5587 5592 5599 5603 5608 5615 5622 5629 5636 5643 5649 5655 5661 5667 5674 5679 5684 5690 5695 5700 5705 5710
5521 5522 5523 5525 5526 5527 5529 5531 5532 5533 5534 5535 5539 5543 5542 5548 5553 5556 5560 5564 5568 5572 5575 5580 5585 5588 5595 5602 5608 5614 5621 5627 5634 5640 5647 5654 5660 5666 5672 5677 5683 5687 5693 5698
5511 5511 5512 5514 5516 5517 5518 5521 5523 5523 5524 5526 5530 5532 5533 5539 5543 5546 5549 5553 5557 5562 5566 5569 5573 5579 5583 5588 5593 5599 5605 5612 5618 5625 5632 5639 5645 5651 5657 5663 5670 5673 5679 5685
5499 5501 5502 5504 5505 5507 5509 5511 5514 5514 5514 5514 5518 5518 5523 5528 5532 5536 5539 5542 5546 5550 5554 5558 5562 5567 5570 5575 5580 5584 5589 5595 5602 5609 5616 5623 5628 5634 5641 5647 5653 5658 5664 5670
5491 5491 5493 5494 5495 5498 5499 5501 5504 5505 5506 5506 5506 5510 5513 5516 5520 5525 5529 5532 5535 5538 5542 5545 5550 5554 5557 5562 5565 5570 5577 5583 5589 5595 5600 5606 5612 5618 5624 5631 5636 5642 5647 5654
5485 5485 5486 5486 5488 5489 5490 5492 5494 5494 5496 5497 5497 5499 5499 5506 5510 5513 5517 5521 5524 5527 5530 5533 5537 5541 5544 5548 5552 5558 5563 5569 5575 5580 5586 5591 5597 5602 5608 5614 5620 5626 5632 5638
5477 5478 5479 5479 5480 5480 5482 5482 5484 5485 5486 5487 5489 5486 5489 5493 5497 5501 5504 5507 5510 5515 5518 5521 5524 5527 5531 5535 5540 5545 5550 5555 5561 5566 5572 5577 5582 5587 5593 5598 5604 5610 5616 5621
5471 5470 5470 5471 5471 5472 5473 5474 5475 5475 5476 5476 5477 5478 5478 5480 5483 5487 5490 5492 5496 5500 5504 5509 5512 5515 5518 5522 5527 5531 5536 5541 5546 5551 5556 5561 5566 5571 5577 5582 5588 5594 5599 5605
5464 5464 5463 5464 5465 5465 5465 5465 5466 5466 5466 5466 5467 5467 5466 5468 5469 5471 5474 5477 5481 5486 5490 5494 5498 5502 5505 5509 5513 5517 5522 5526 5532 5536 5540 5544 5549 5554 5560 5566 5571 5577 5582 5587
5459 5458 5458 5458 5457 5458 5458 5459 5459 5459 5459 5457 5457 5456 5455 5456 5457 5459 5461 5464 5467 5470 5475 5479 5483 5488 5491 5495 5499 5502 5506 5510 5514 5518 5522 5526 5531 5537 5544 5549 5554 5559 5564 5569
5454 5453 5453 5452 5452 5451 5452 5452 5452 5452 5452 5451 5450 5448 5446 5446 5445 5447 5449 5453 5456 5459 5461 5465 5469 5473 5477 5481 5484 5488 5492 5496 5500 5504 5508 5512 5518 5523 5528 5532 5538 5543 5547 5552
5449 5449 5448 5447 5447 5446 5446 5446 5446 5445 5444 5442 5441 5439 5437 5436 5436 5437 5438 5441 5444 5448 5450 5453 5456 5459 5463 5466 5470 5474 5478 5482 5486 5490 5494 5499 5503 5508 5512 5517 5523 5527 5532 5536
5447 5445 5443 5443 5442 5441 5442 5440 5439 5439 5438 5436 5434 5433 5431 5429 5428 5428 5428 5429 5432 5435 5437 5440 5444 5446 5450 5453 5456 5459 5464 5468 5472 5476 5480 5484 5489 5493 5498 5503 5508 5512 5517 5521
5444 5442 5440 5438 5437 5437 5436 5435 5433 5432 5432 5430 5428 5426 5425 5423 5421 5418 5416 5419 5420 5421 5423 5427 5430 5433 5436 5440 5443 5446 5449 5453 5457 5461 5465 5469 5474 5479 5484 5489 5492 5497 5501 5505
5440 5438 5436 5434 5432 5432 5430 5429 5428 5426 5426 5423 5421 5419 5418 5416 5415 5410 5408 5408 5407 5409 5411 5414 5417 5420 5423 5426 5429 5433 5436 5440 5443 5446 5450 5454 5460 5465 5469 5473 5476 5481 5485 5490
5435 5433 5432 5430 5428 5427 5426 5424 5422 5420 5420 5417 5415 5413 5410 5407 5407 5403 5400 5399 5399 5398 5397 5399 5402 5405 5408 5411 5413 5418 5422 5425 5429 5431 5435 5441 5446 5450 5454 5457 5462 5467 5471 5475
5429 5428 5426 5425 5423 5422 5420 5419 5417 5416 5416 5411 5408 5406 5403 5400 5397 5397 5393 5391 5389 5389 5388 5388 5387 5386 5389 5393 5396 5401 5405 5408 5411 5415 5419 5424 5430 5434 5438 5442 5447 5451 5455 5461
5424 5423 5422 5420 5418 5418 5415 5414 5412 5409 5406 5404 5401 5398 5396 5393 5390 5387 5385 5383 5380 5379 5378 5377 5377 5376 5376 5375 5377 5381 5384 5388 5392 5397 5403 5407 5412 5417 5421 5426 5431 5436 5440 5445
5420 5419 5417 5416 5413 5411 5408 5407 5404 5401 5399 5396 5393 5390 5387 5386 5382 5379 5376 5374 5371 5369 5367 5366 5365 5365 5365 5365 5364 5365 5366 5368 5373 5377 5383 5388 5393 5398 5403 5409 5414 5419 5424 5430
5416 5414 5413 5410 5407 5404 5401 5398 5395 5393 5390 5387 5384 5381 5378 5377 5373 5370 5367 5365 5363 5360 5357 5355 5353 5353 5353 5352 5353 5354 5354 5355 5356 5359 5363 5368 5373 5378 5383 5390 5395 5401 5408 5413
5411 5409 5407 5405 5401 5398 5394 5390 5387 5383 5380 5378 5374 5371 5368 5366 5363 5361 5358 5355 5352 5349 5346 5344 5342 5341 5340 5340 5341 5341 5342 5343 5345 5346 5348 5349 5352 5356 5362 5369 5376 5382 5390 5395
5407 5404 5401 5398 5394 5389 5386 5382 5378 5375 5371 5367 5365 5361 5357 5356 5353 5350 5347 5344 5342 5339 5335 5332 5329 5328 5327 5326 5326 5327 5329 5331 5333 5334 5335 5336 5337 5339 5341 5347 5354 5362 5370 5377
Wind_Speed
31 33 35 37 36 35 35 34 35 39 39 41 43 43 45 44 45 56 52 58 61 62 62 62 61 59 57 56 56 55 56 56 55 54 53 52 50 49 48 48 47 47 48 49
33 34 31 32 32 34 33 32 30 37 34 40 40 41 46 45 43 49 54 52 58 63 63 63 63 63 62 60 59 58 58 58 57 55 54 53 53 52 50 49 49 47 48 47
31 29 30 32 33 33 33 35 34 33 32 36 37 40 45 46 47 47 52 54 53 58 61 65 64 65 65 64 63 62 60 60 59 59 58 57 56 54 53 52 51 50 49 47
29 31 32 34 35 35 36 33 34 34 38 38 35 38 43 43 47 49 49 53 53 53 58 59 67 66 66 66 67 66 66 64 62 61 61 60 59 58 57 55 54 53 52 50
31 31 34 36 36 38 38 37 37 36 37 39 39 38 42 42 44 46 50 51 53 53 53 56 60 63 68 66 67 67 68 69 68 67 66 64 63 62 61 60 58 56 56 54
36 37 38 39 40 40 40 39 39 39 39 41 40 38 43 40 40 45 46 50 53 54 54 53 54 60 61 64 67 68 67 68 69 71 70 69 68 67 66 65 64 62 61 60
37 37 37 37 36 36 36 36 36 39 39 41 40 42 43 41 37 39 44 47 49 54 56 56 55 55 58 61 60 63 65 68 69 67 68 70 71 70 70 70 69 67 66 65
32 35 36 36 36 35 35 34 32 30 31 36 38 42 44 45 39 37 39 42 48 50 53 57 59 58 59 59 63 64 63 64 64 66 70 71 69 69 71 71 72 71 71 70
21 24 22 25 27 31 34 36 37 36 37 38 39 39 39 40 43 46 41 39 41 45 51 53 57 60 61 62 64 65 67 67 65 64 65 65 67 70 72 74 73 72 72 72
23 25 25 25 26 27 28 30 31 35 38 39 42 42 44 41 39 41 43 46 44 43 44 49 54 56 59 62 63 66 66 68 69 70 70 68 67 67 68 68 69 72 75 75
23 25 26 26 27 27 27 27 29 33 36 38 37 43 42 44 45 45 44 45 47 50 46 45 47 52 57 60 62 63 64 66 68 70 71 72 72 73 72 70 70 70 71 71
21 23 25 25 25 25 26 27 28 30 35 38 41 45 45 45 45 46 48 47 48 49 51 52 49 49 52 56 60 62 62 63 65 67 68 70 71 72 73 73 74 74 75 75
19 20 21 22 23 22 23 23 24 25 29 34 37 43 46 49 50 50 50 51 51 50 51 52 54 52 51 54 55 58 60 62 63 64 66 67 68 69 70 71 73 74 75 76
17 17 17 19 20 20 18 19 20 22 25 28 30 34 40 45 49 51 49 47 50 52 51 52 52 54 55 53 53 56 59 62 63 64 64 65 65 64 65 66 67 69 71 72
13 14 14 14 15 16 17 17 17 18 19 19 20 22 27 32 38 44 49 49 46 41 42 45 49 51 53 55 55 56 55 56 60 63 64 65 66 66 65 65 65 65 65 67
12 11 12 13 14 14 14 15 16 15 15 16 17 20 24 28 32 36 40 45 46 53 49 44 41 43 48 50 54 57 55 58 59 58 60 62 63 64 65 65 65 65 65 65
11 12 12 12 13 13 14 15 15 14 14 16 17 19 20 25 31 38 42 42 45 51 50 52 49 48 45 47 50 52 53 55 55 58 62 61 61 61 63 64 65 65 66 66
12 12 13 14 14 12 13 15 16 16 14 16 17 18 20 21 23 28 37 50 49 48 51 51 53 55 55 53 50 51 53 54 54 55 55 56 58 59 61 62 62 62 61 62
14 13 13 13 14 14 14 14 14 16 17 18 18 20 21 24 24 28 28 28 40 57 55 55 56 56 57 59 60 59 56 55 54 54 54 54 55 55 56 57 59 60 61 61
15 13 13 13 14 15 15 14 15 18 17 19 20 23 23 25 24 28 31 31 30 30 35 55 63 61 60 61 62 62 64 64 63 61 58 56 55 56 56 57 56 57 56 56
15 14 13 13 14 15 15 14 17 18 20 19 20 21 21 24 27 26 30 31 33 33 33 32 32 41 65 71 68 68 65 65 65 65 64 64 63 61 59 59 60 60 59 57
17 15 13 14 16 17 16 17 19 20 21 21 21 22 19 22 24 25 27 30 33 33 34 37 35 34 34 38 51 68 72 69 68 70 68 67 66 65 64 65 63 60 60 59
15 17 15 16 18 19 20 21 21 22 23 23 24 25 24 23 25 25 26 27 28 31 33 35 36 39 38 36 36 37 42 54 64 70 70 70 69 68 67 66 64 63 62 61
17 17 14 18 20 22 24 26 26 25 26 25 26 26 27 26 26 26 28 29 29 31 32 32 34 37 39 41 39 38 37 39 41 46 55 64 69 70 68 68 67 66 62 59
15 14 15 20 25 28 29 30 30 30 31 29 29 30 31 29 28 27 29 30 30 31 32 33 34 34 38 39 42 41 40 40 40 40 41 43 49 58 67 71 69 68 66 63
16 18 22 26 29 31 32 32 31 32 32 32 32 33 33 30 29 29 31 31 32 33 35 37 38 37 36 38 40 44 42 40 40 40 40 41 42 45 50 61 67 69 68 65
Wind_Direction
250 249 249 249 248 253 253 250 247 247 247 244 244 240 242 241 238 234 236 234 232 230 227 226 228 230 230 229 228 228 229 230 231 232 233 233 234 234 236 236 237 237 239 239
254 251 249 245 245 251 252 247 247 248 244 246 243 240 240 240 238 235 236 237 234 231 230 228 227 229 230 231 231 231 231 231 231 232 233 234 235 235 235 236 237 236 237 237
252 253 249 246 245 245 246 248 251 252 248 248 246 241 243 238 238 237 235 238 237 237 230 231 228 229 230 232 232 233 233 234 234 234 235 235 236 237 237 237 237 238 238 238
247 243 243 244 246 248 251 254 256 256 253 251 249 248 242 239 238 236 236 236 239 237 238 229 232 230 230 232 233 234 235 235 235 236 237 238 238 239 239 240 241 241 241 241
248 245 246 248 250 252 255 257 260 260 259 251 245 248 249 241 239 238 236 235 237 239 237 238 233 230 231 231 233 234 235 236 237 238 238 238 239 240 240 241 242 242 243 242
254 253 253 253 255 257 259 259 259 258 256 254 247 244 247 246 240 239 238 235 235 236 239 238 235 240 236 231 233 233 235 237 238 238 239 240 240 241 242 242 243 243 244 244
256 257 257 257 258 257 257 254 253 253 252 254 250 243 246 246 243 241 239 239 236 235 236 237 238 236 236 240 239 233 233 236 237 238 239 240 241 242 242 243 244 244 245 245
258 254 253 253 253 252 250 248 244 245 252 254 251 248 247 243 243 242 240 239 238 236 235 236 237 237 238 237 238 240 240 237 236 237 239 239 240 241 242 243 244 245 245 246
259 255 253 250 250 249 248 247 246 246 249 254 254 251 250 246 245 244 243 240 239 238 238 237 236 236 237 238 238 237 238 240 241 242 241 241 241 241 242 243 243 244 245 246
260 259 258 257 253 250 248 249 246 245 246 249 253 253 252 249 246 244 243 242 241 239 238 238 238 237 237 237 238 239 239 239 239 239 240 241 243 244 244 243 244 245 246 246
260 259 259 258 253 253 252 250 249 248 250 247 249 254 252 251 248 246 245 243 240 238 237 237 238 238 238 237 238 239 240 240 240 240 240 241 241 241 242 243 244 245 246 246
261 259 257 257 252 250 250 253 253 252 252 251 251 253 256 257 255 250 246 244 243 242 239 238 237 237 239 239 238 238 240 241 240 241 241 242 243 243 243 243 243 244 244 245
264 259 257 253 251 249 251 254 257 255 255 257 256 257 254 252 254 255 253 249 246 243 241 239 237 236 236 237 238 239 238 240 242 243 242 242 243 243 244 244 245 245 245 245
265 261 258 258 254 249 247 250 254 256 257 259 259 260 260 258 256 253 251 252 253 250 245 241 238 237 235 237 237 237 237 237 237 239 241 242 243 244 245 245 245 246 246 246
272 268 262 256 254 251 249 247 249 254 259 260 267 265 265 265 263 259 255 251 243 238 236 240 242 241 239 238 237 238 238 239 239 240 241 243 243 243 244 244 244 245 246 246
285 278 266 259 258 257 253 250 253 262 268 276 279 277 279 276 273 269 264 255 247 244 245 239 235 238 239 240 240 238 239 239 239 241 241 242 243 244 246 247 248 248 247 247
297 291 284 277 271 262 258 251 259 263 268 272 274 277 275 276 272 263 253 251 248 247 246 247 246 242 240 238 238 238 239 241 242 242 242 243 244 245 246 246 248 249 250 251
304 295 288 284 277 270 263 263 265 270 271 271 271 273 275 279 280 275 264 252 247 242 242 242 242 244 245 243 240 236 235 235 237 240 243 244 245 246 247 248 250 250 250 252
300 293 289 287 280 277 273 275 274 280 282 280 278 276 277 274 272 274 277 274 263 253 246 243 243 242 244 245 245 242 240 237 236 237 239 241 243 244 246 247 249 250 252 252
296 289 283 283 284 281 281 275 269 280 281 281 281 284 283 281 275 272 274 275 274 273 269 255 249 248 247 247 247 246 246 247 245 243 242 242 245 247 247 248 248 249 250 251
292 284 282 283 287 284 288 283 283 285 288 287 283 284 281 281 282 271 273 276 274 273 274 272 267 261 252 250 251 250 249 249 250 251 252 251 248 247 248 248 248 248 248 249
303 285 283 285 291 294 294 296 291 289 289 291 291 289 289 285 282 282 279 276 276 275 274 271 270 268 265 261 257 254 253 253 254 253 252 251 250 248 248 248 248 249 249 248
307 295 293 291 295 296 302 303 298 296 291 291 292 294 295 291 284 283 283 284 285 283 277 272 271 266 265 264 262 258 255 253 255 255 253 252 252 252 250 249 248 248 248 247
313 305 290 287 294 301 302 303 302 299 298 295 293 295 293 292 288 287 287 287 285 282 282 282 276 268 263 260 260 260 259 257 256 254 253 253 253 252 251 251 250 247 246 246
312 299 288 293 295 297 300 301 303 301 299 298 296 297 295 294 290 287 286 286 286 287 287 283 279 275 267 261 255 254 255 256 258 258 258 257 254 250 249 249 248 248 246 245
310 299 294 295 297 298 299 300 299 298 299 298 298 296 294 291 290 290 289 289 289 289 290 289 284 277 270 265 259 252 251 254 257 258 257 258 259 256 252 245 244 244 244 244